www.pogodaiklimat.ru

Погода и климат >> Архив погоды >> Россия >> Якутия >> Саскылах


АРХИВ ПОГОДЫ в Саскылахе

Время (UTC), дата Ветер
(напр.,м/с)
 
Видим.   Явления Облачность Т
(С)
Тd
(С)
f
(%)
Тe
(С)
Тes
(С)
Комфортность P
(гПа)
Po
(гПа)
Тmin
(С)
Tmax
(С)
R
(мм)
R24
(мм)
S
(см)
09 19.03 штиль 0 50 км ясно -24.6 -30.1 60 -25 -24 1020.1 1017.5
12 19.03 ЮВ 2 50 км 6/0
[Ac trans]
-27.0 -29.7 78 -34 -34 опасность
обморожения
1019.4 1016.8 -24.6
15 19.03 ЮВ 2 50 км ясно -26.5 -29.0 79 -33 -33 опасность
обморожения
1018.2 1015.6
18 19.03 ЮВ 1 50 км ясно -24.5 -27.1 79 -28 -28 1017.2 1014.6
21 19.03 штиль 0 50 км ясно -23.7 -26.3 79 -24 -24 1016.7 1014.1
00 20.03 ЮВ 2 50 км 10/0
[Ac und]
-18.8 -20.9 83 -24 -24 1016.0 1013.5 -27.1 38
03 20.03 ЮЗ 4 50 км в посл. час снег 10/6 450 м
[Sc Ac und]
-12.9 -15.8 79 -20 -20 1015.9 1013.4
06 20.03 ЮЗ 2 50 км {снег} 10/0
[Ac und]
-12.2 -15.4 77 -17 -16 1016.3 1013.9
09 20.03 ЮЗ 3 50 км 10/0
[Ac lent Ci fib]
-13.2 -15.9 80 -19 -19 1017.2 1014.7
12 20.03 штиль 0 50 км 4/0
[Ac trans]
-16.0 -18.3 82 -16 -16 1017.5 1015.0 -12.2 0.0
15 20.03 ЮВ 2 50 км 4/0
[Ci fib]
-18.5 -20.2 86 -24 -24 1017.7 1015.2
18 20.03 ЮЗ 1 50 км ясно -20.2 -22.0 85 -23 -23 1017.3 1014.8
21 20.03 Ю 3 50 км ясно -19.1 -21.0 85 -27 -27 1016.3 1013.8
00 21.03 Ю 2 50 км 8/6 630 м
[Sc Cs]
-14.9 -17.3 82 -20 -20 1015.2 1012.7 -20.3 38
03 21.03 ЮЗ 2 50 км 10/4 480 м
[Sc Ac und]
-13.2 -16.8 74 -18 -18 1013.9 1011.4
06 21.03 ЮВ 3 50 км 8/4 720 м
[Sc Cs]
-11.3 -15.7 70 -17 -16 1012.2 1009.8
09 21.03 ЮВ 2 н/о н/о -14.1 -18.0 72 -19 -19 1009.6 1007.5
12 21.03 В 3 50 км 8/0
[Ac lent Ci fib]
-14.8 -17.8 78 -21 -21 1006.4 1004.0 -11.3
15 21.03 ЮВ 3 50 км 4/0
[Ci fib]
-13.2 -16.3 77 -19 -19 1002.5 1000.1
18 21.03 ЮВ 4 50 км ясно -12.2 -14.9 80 -19 -19 998.0 995.6
21 21.03 В 2 50 км ясно -12.0 -13.2 91 -17 -17 994.7 992.3
00 22.03 В 1 4000 м дымка 10/10 300 м
[St]
-11.8 -13.1 90 -14 -14 992.4 990.0 -14.9 38
03 22.03 СЗ 5 20 км слаб. снег 10/0 500 м
[As op Cs]
-11.6 -13.9 83 -20 -19 992.4 990.0
06 22.03 СЗ 6 50 км {снег} 6/0
[Ci fib]
-17.0 -19.8 79 -27 -26 994.6 992.1
09 22.03 СЗ 7 50 км позёмок 6/0
[Ci fib]
-18.1 -20.5 81 -29 -29 997.5 995.0
12 22.03 СЗ 7 50 км {метель} 6/0
[Ci fib]
-20.5 -23.0 80 -32 -32 опасность
обморожения
1000.9 998.4 -11.6 0.0
15 22.03 СЗ 9
{12}
50 км позёмок 10/0
[Ac trans]
-21.8 -24.5 79 -35 -35 опасность
обморожения
1003.4 1000.9
18 22.03 С 7-12
{13}
50 км 10/0
[Ac und]
-22.9 -25.6 78 -35 -35 опасность
обморожения
1005.3 1003.1
21 22.03 СЗ 6
{11}
50 км 10/0
[Ac und]
-22.6 -25.3 79 -34 -34 опасность
обморожения
1008.0 1005.4
00 23.03 СЗ 6 50 км 10/0
[Ac und]
-24.2 -27.2 76 -36 -36 опасность
обморожения
1009.9 1007.3 -24.3 38
03 23.03 СЗ 6
{11}
50 км 10/0
[Ac und]
-25.5 -29.1 72 -38 -38 опасность
обморожения
1011.9 1009.3
06 23.03 СЗ 6 50 км 8/0
[Ac trans Ci fib]
-25.4 -29.1 71 -38 -37 опасность
обморожения
1013.8 1011.2
09 23.03 СЗ 6-10
{11}
50 км ясно -26.0 -29.7 71 -39 -38 опасность
обморожения
1015.3 1012.7
12 23.03 З 4 50 км ясно -26.9 -30.1 74 -37 -37 опасность
обморожения
1016.2 1013.6 -24.2
15 23.03 С 2 50 км ясно -29.4 -32.2 77 -37 -37 опасность
обморожения
1016.1 1013.8
18 23.03 СЗ 2 50 км ясно -30.3 -33.3 75 -38 -38 опасность
обморожения
1016.6 1014.0
21 23.03 ЮВ 1 50 км ясно -34.9 -38.6 69 -40 -40 опасность
обморожения
1016.6 1014.3
00 24.03 штиль 0 50 км ясно -33.6 -37.1 71 -34 -33 опасность
обморожения
1017.3 1014.7 -35.0 38
03 24.03 ЮВ 1 50 км ясно -29.2 -32.6 72 -33 -30 опасность
обморожения
1017.6 1015.0
06 24.03 штиль 0 50 км ясно -22.4 -27.7 62 -22 -19 1017.7 1015.2
09 24.03 штиль 0 50 км ясно -22.0 -27.9 59 -22 -21 1018.2 1015.7
12 24.03 В 1 50 км ясно -26.9 -29.8 76 -31 -31 опасность
обморожения
1018.6 1016.0 -22.0
15 24.03 штиль 0 50 км ясно -31.3 -34.2 75 -31 -31 опасность
обморожения
1018.4 1015.8
18 24.03 В 1 50 км ясно -32.2 -35.1 75 -37 -37 опасность
обморожения
1018.4 1015.8
21 24.03 штиль 0 50 км ясно -34.4 -37.7 72 -34 -34 опасность
обморожения
1018.7 1016.0
00 25.03 штиль 0 50 км ясно -33.0 -36.5 71 -33 -32 опасность
обморожения
1018.8 1016.1 -34.5 38
03 25.03 штиль 0 50 км ясно -27.7 -32.1 66 -28 -24 1019.0 1016.3
06 25.03 ЮВ 1 50 км 3/0
[Ci fib]
-22.4 -30.0 50 -26 -23 1018.6 1016.1
09 25.03 Ю 1 50 км 3/0
[Ci fib]
-20.4 -27.9 51 -23 -23 1018.2 1015.7
12 25.03 ЮВ 2 н/о н/о -24.2 -28.2 69 -31 -31 опасность
обморожения
1018.2 1015.9 -19.3
15 25.03 Ю 1 50 км ясно -22.7 -26.7 70 -26 -26 1017.7 1015.2
18 25.03 ЮВ 1 50 км ясно -22.1 -5.8 100 -25 -25 1017.3 1014.8
21 25.03 ЮВ 1 50 км ясно -22.0 -25.6 72 -25 -25 1017.0 1014.5
00 26.03 ЮВ 1 50 км ясно -21.4 -25.4 70 -25 -24 1016.7 1014.2 -24.3 38
03 26.03 ЮВ 3 50 км 10/10 400 м
[Sc]
-15.8 -19.3 74 -23 -23 1016.3 1013.8
06 26.03 ЮВ 3 50 км 10/10 930 м
[Sc]
-9.4 -12.9 76 -15 -15 1015.5 1013.1

 

Местоположение метеостанции Саскылах (Якутия, Россия): широта 71.97 долгота 114.00 высота над уровнем моря 17 м.

В архиве по умолчанию представлена погода в Саскылахе за последнюю неделю. Архивные данные за месяц целиком и за предыдущие месяцы, начиная с января 2011 года, Вы можете получить, выбрав интересующий диапазон дат из раскрывающегося списка и нажав кнопку "Ввод!".


*Определитесь, кто Вы:
робот инопланетянин человек

Внимание! Время в таблицах - всемирное. Для получения местного времени необходимо прибавить поправку, которая равна 9 ч.

Смотрите также архив погоды в соседних городах и на ближайших метеорологических станциях:

Погода в Анабаре (Якутия, Россия) (140 км)
Погода в Джалинде (Якутия, Россия) (205 км)
Погода на Усть-Оленеке (Якутия, Россия) (225 км)
Погода на Острове Преображения (Якутия, Россия) (302 км)
Погода в Тюмяти (Якутия, Россия) (327 км)
Погода в Оленеке (Якутия, Россия) (391 км)
Погода в Хатанге (Красноярский край, Россия) (396 км)
Погода в Сухане (Якутия, Россия) (406 км)
Погода на Столб Острове (Якутия, Россия) (421 км)
Погода в Кюсюре (Якутия, Россия) (497 км)

Пояснения к столбцам:

Ветер - указаны скорость ветра в м/с - средняя за 10 мин, порывы в срок и между сроками (в фигурных скобках) и направление, откуда дует ветер: С - северный, СВ - северо-восточный, В - восточный, ЮВ - юго-восточный, Ю - южный, ЮЗ - юго-западный, З - западный, СЗ - северо-западный.
Видимость - горизонтальная дальность видимости в метрах или километрах. При видимости от 1 до 10 км при отсутствии осадков обычно наблюдается дымка, при ухудшении видимости до 1 км и менее - туман. В сухую погоду видимость может ухудшаться дымом, пылью или мглою.
Явления - указаны атмосферные явления, наблюдавшиеся в срок или в последний час перед сроком; фигурными скобками обозначены явления, наблюдавшиеся между сроками (за 1-3 часа до срока); квадратными скобками обозначены град или гололедные отложения с указанием их диаметра в мм.
Облачность - указаны через наклонную черту общая и нижняя облачность в баллах и высота нижней границы облаков в метрах; квадратными скобками обозначены формы облаков: Ci - перистые, Cs - перисто-слоистые, Cc - перисто-кучевые, Ac - высококучевые, As - высокослоистые, Sc - слоисто-кучевые, Ns - слоисто-дождевые, Cu - кучевые, Cb - кучево-дождевые. Подробнее классификацию облаков см. в Атласе облаков (PDF).
T - Температура воздуха - температура, измеренная на высоте 2 м над землей.
Td - Температура точки росы - температура, при понижении до которой содержащийся в воздухе водяной пар достигнет насыщения.
f - Относительная влажность воздуха - влажноcть воздуха, измеренная на высоте 2 м над землей.
Te - Эффективная температура - температура, которую ощущает одетый по сезону человек в тени. Характеристика душности погоды. При расчете учитывается влияние влажности воздуха и скорости ветра на теплоощущения человека.
Tes - Эффективная температура на солнце - температура, которую ощущает человек, с поправкой на солнечный нагрев. Характеристика знойности погоды. Зависит от высоты солнца над горизонтом, облачности и скорости ветра. Ночью, в пасмурную погоду, а также при ветре 12 м/с и более поправка равна нулю.
P - Атмосферное давление - приведенное к уровню моря атмосферное давление.
Po - Атмосферное давление - измеренное на уровне метеостанции атмосферное давление.
Tmin - Минимальная температура - минимум температуры воздуха на высоте 2 м над землей.
Tmax - Максимальная температура - максимум температуры воздуха на высоте 2 м над землей.
R - Количество осадков - Количество выпавших осадков за период времени, мм. При наведении курсора мыши на число - период времени, за который выпало указанное количество осадков.
R24 - Количество осадков - Количество выпавших осадков за 24 часа, мм.
S - Снежный покров - Высота снежного покрова, см. При наведении курсора мыши на число - состояние снежного покрова и степень покрытия местности в баллах.